| time (UTC) | temp C | wind direction | speed KPH | gust KPH | rain 1hr cm | rain 24hr cm | rain mn cm | humidity % | barometer mb |
| 20260508014504 | 8 | 186 | 0.0 | 0.0 | 0.00 | 0.00 | 0.00 | 66 | 1012.0 |
| 20260508014050 | 9 | 186 | 0.0 | 0.0 | 0.00 | 0.00 | 0.00 | 65 | 1012.0 |
| 20260508013112 | 10 | 186 | 0.0 | 0.0 | 0.00 | 0.00 | 0.00 | 66 | 1011.9 |
| 20260508012202 | 10 | 186 | 0.0 | 0.0 | 0.00 | 0.00 | 0.00 | 63 | 1011.8 |
| 20260508011803 | 10 | 186 | 0.0 | 0.0 | 0.00 | 0.00 | 0.00 | 64 | 1011.8 |
| 20260508011355 | 10 | 186 | 0.0 | 0.0 | 0.00 | 0.00 | 0.00 | 63 | 1011.8 |
| 20260508010947 | 10 | 167 | 0.0 | 0.0 | 0.00 | 0.00 | 0.00 | 63 | 1011.8 |
| 20260508010017 | 11 | 185 | 0.0 | 1.6 | 0.00 | 0.00 | 0.00 | 60 | 1011.6 |
| 20260508005610 | 11 | 166 | 0.0 | 6.4 | 0.00 | 0.00 | 0.00 | 59 | 1011.6 |
| 20260508005157 | 11 | 222 | 0.0 | 6.4 | 0.00 | 0.00 | 0.00 | 59 | 1011.5 |
| 20260508004754 | 11 | 214 | 1.6 | 6.4 | 0.00 | 0.00 | 0.00 | 58 | 1011.5 |
| 20260508004354 | 11 | 257 | 1.6 | 9.7 | 0.00 | 0.00 | 0.00 | 57 | 1011.5 |
| 20260508003944 | 11 | 243 | 1.6 | 9.7 | 0.00 | 0.00 | 0.00 | 58 | 1011.4 |
| 20260508003544 | 11 | 216 | 3.2 | 14.5 | 0.00 | 0.00 | 0.00 | 58 | 1011.5 |
| 20260508003145 | 11 | 279 | 3.2 | 14.5 | 0.00 | 0.00 | 0.00 | 57 | 1011.5 |
| 20260508002744 | 11 | 238 | 3.2 | 14.5 | 0.00 | 0.00 | 0.00 | 57 | 1011.5 |
| 20260508001300 | 12 | 276 | 4.8 | 14.5 | 0.00 | 0.00 | 0.00 | 55 | 1011.4 |
| 20260507235822 | 12 | 48 | 4.8 | 16.1 | 0.00 | 0.00 | 0.00 | 53 | 1011.2 |
| 20260507235418 | 12 | 42 | 3.2 | 16.1 | 0.00 | 0.00 | 0.00 | 51 | 1011.2 |
| 20260507235012 | 12 | 46 | 3.2 | 16.1 | 0.00 | 0.00 | 0.00 | 49 | 1011.2 |
| 20260507234600 | 12 | 46 | 4.8 | 16.1 | 0.00 | 0.00 | 0.00 | 48 | 1011.1 |
| 20260507234205 | 12 | 42 | 4.8 | 14.5 | 0.00 | 0.00 | 0.00 | 49 | 1011.1 |
| 20260507233801 | 12 | 51 | 4.8 | 14.5 | 0.00 | 0.00 | 0.00 | 49 | 1011.1 |
| 20260507233408 | 12 | 55 | 4.8 | 17.7 | 0.00 | 0.00 | 0.00 | 48 | 1011.1 |
| 20260507232953 | 12 | 33 | 4.8 | 17.7 | 0.00 | 0.00 | 0.00 | 48 | 1011.0 |
| 20260507232542 | 12 | 32 | 4.8 | 17.7 | 0.00 | 0.00 | 0.00 | 50 | 1011.1 |
| 20260507232145 | 12 | 26 | 4.8 | 17.7 | 0.00 | 0.00 | 0.00 | 49 | 1011.1 |
| 20260507231739 | 12 | 54 | 4.8 | 17.7 | 0.00 | 0.00 | 0.00 | 50 | 1011.1 |
| 20260507231335 | 13 | 200 | 3.2 | 14.5 | 0.00 | 0.00 | 0.00 | 52 | 1011.1 |
| 20260507230923 | 13 | 224 | 3.2 | 14.5 | 0.00 | 0.00 | 0.00 | 50 | 1011.1 |
| 20260507230530 | 12 | 270 | 3.2 | 14.5 | 0.00 | 0.00 | 0.00 | 55 | 1011.2 |
| 20260507230131 | 12 | 355 | 4.8 | 20.9 | 0.00 | 0.00 | 0.00 | 53 | 1011.3 |
| 20260507225722 | 12 | 269 | 3.2 | 20.9 | 0.00 | 0.00 | 0.00 | 56 | 1011.2 |
| 20260507225308 | 12 | 249 | 4.8 | 20.9 | 0.00 | 0.00 | 0.00 | 55 | 1011.3 |
| 20260507224902 | 13 | 0 | 4.8 | 20.9 | 0.00 | 0.00 | 0.00 | 54 | 1011.3 |
| 20260507223951 | 13 | 0 | 6.4 | 20.9 | 0.00 | 0.00 | 0.00 | 53 | 1011.3 |
| 20260507223539 | 13 | 0 | 6.4 | 20.9 | 0.00 | 0.00 | 0.00 | 52 | 1011.3 |
| 20260507222622 | 13 | 343 | 6.4 | 16.1 | 0.00 | 0.00 | 0.00 | 52 | 1011.2 |
| 20260507222210 | 13 | 0 | 4.8 | 16.1 | 0.00 | 0.00 | 0.00 | 52 | 1011.3 |
| 20260507221811 | 13 | 17 | 4.8 | 14.5 | 0.00 | 0.00 | 0.00 | 52 | 1011.2 |
| 20260507220851 | 13 | 238 | 4.8 | 16.1 | 0.00 | 0.00 | 0.00 | 50 | 1011.2 |
| 20260507220451 | 13 | 0 | 4.8 | 16.1 | 0.00 | 0.00 | 0.00 | 50 | 1011.2 |
| 20260507220047 | 13 | 0 | 4.8 | 19.3 | 0.00 | 0.00 | 0.00 | 50 | 1011.1 |
| 20260507215643 | 13 | 0 | 4.8 | 19.3 | 0.00 | 0.00 | 0.00 | 50 | 1011.2 |
| 20260507215246 | 13 | 0 | 4.8 | 19.3 | 0.00 | 0.00 | 0.00 | 50 | 1011.1 |
| 20260507214326 | 13 | 0 | 4.8 | 19.3 | 0.00 | 0.00 | 0.00 | 51 | 1011.1 |
| 20260507213415 | 13 | 0 | 3.2 | 14.5 | 0.00 | 0.00 | 0.00 | 54 | 1010.9 |
| 20260507213007 | 13 | 0 | 4.8 | 14.5 | 0.00 | 0.00 | 0.00 | 53 | 1010.9 |
| 20260507212551 | 13 | 0 | 4.8 | 14.5 | 0.00 | 0.00 | 0.00 | 51 | 1010.9 |
| 20260507212158 | 13 | 0 | 4.8 | 12.9 | 0.00 | 0.00 | 0.00 | 54 | 1011.0 |
| 20260507211749 | 13 | 0 | 4.8 | 17.7 | 0.00 | 0.00 | 0.00 | 53 | 1011.0 |
| 20260507211356 | 13 | 0 | 4.8 | 17.7 | 0.00 | 0.00 | 0.00 | 50 | 1011.0 |
| 20260507210952 | 13 | 0 | 4.8 | 17.7 | 0.00 | 0.00 | 0.00 | 50 | 1011.0 |
| 20260507210554 | 13 | 0 | 4.8 | 17.7 | 0.00 | 0.00 | 0.00 | 49 | 1011.0 |
| 20260507205618 | 13 | 0 | 4.8 | 12.9 | 0.00 | 0.00 | 0.00 | 50 | 1011.0 |
| 20260507205204 | 13 | 0 | 4.8 | 12.9 | 0.00 | 0.00 | 0.00 | 46 | 1010.9 |
| 20260507204219 | 13 | 0 | 4.8 | 14.5 | 0.00 | 0.00 | 0.00 | 46 | 1010.9 |
| 20260507203818 | 13 | 0 | 4.8 | 16.1 | 0.00 | 0.00 | 0.00 | 50 | 1010.9 |
| 20260507203408 | 13 | 0 | 3.2 | 16.1 | 0.00 | 0.00 | 0.00 | 45 | 1011.0 |
| 20260507202450 | 13 | 222 | 4.8 | 16.1 | 0.00 | 0.00 | 0.00 | 49 | 1011.0 |
| 20260507202048 | 13 | 184 | 4.8 | 14.5 | 0.00 | 0.00 | 0.00 | 48 | 1011.1 |
| 20260507201634 | 13 | 238 | 4.8 | 14.5 | 0.00 | 0.00 | 0.00 | 50 | 1011.1 |
| 20260507200715 | 13 | 254 | 4.8 | 14.5 | 0.00 | 0.00 | 0.00 | 49 | 1011.1 |
| 20260507200303 | 13 | 26 | 4.8 | 14.5 | 0.00 | 0.00 | 0.00 | 48 | 1011.2 |
| 20260507195909 | 13 | 250 | 4.8 | 14.5 | 0.00 | 0.00 | 0.00 | 53 | 1011.2 |
| 20260507195453 | 13 | 180 | 6.4 | 14.5 | 0.00 | 0.00 | 0.00 | 55 | 1011.2 |
| 20260507195100 | 13 | 171 | 6.4 | 14.5 | 0.00 | 0.00 | 0.00 | 50 | 1011.3 |
| 20260507194653 | 13 | 191 | 4.8 | 12.9 | 0.00 | 0.00 | 0.00 | 52 | 1011.3 |
| 20260507194244 | 13 | 157 | 4.8 | 16.1 | 0.00 | 0.00 | 0.00 | 49 | 1011.4 |
| 20260507193828 | 13 | 225 | 4.8 | 16.1 | 0.00 | 0.00 | 0.00 | 49 | 1011.4 |
| 20260507193419 | 13 | 200 | 4.8 | 16.1 | 0.00 | 0.00 | 0.00 | 53 | 1011.4 |
| 20260507193009 | 13 | 196 | 4.8 | 16.1 | 0.00 | 0.00 | 0.00 | 51 | 1011.5 |
| 20260507192604 | 13 | 183 | 3.2 | 16.1 | 0.00 | 0.00 | 0.00 | 52 | 1011.5 |
| 20260507191624 | 13 | 207 | 4.8 | 12.9 | 0.00 | 0.00 | 0.00 | 55 | 1011.7 |
| 20260507190650 | 13 | 60 | 4.8 | 11.3 | 0.00 | 0.00 | 0.00 | 54 | 1011.7 |
| 20260507185741 | 13 | 259 | 3.2 | 11.3 | 0.00 | 0.00 | 0.00 | 56 | 1011.7 |
| 20260507185333 | 13 | 187 | 3.2 | 9.7 | 0.00 | 0.00 | 0.00 | 57 | 1011.6 |
| 20260507184920 | 13 | 221 | 3.2 | 9.7 | 0.00 | 0.00 | 0.00 | 57 | 1011.6 |
| 20260507184514 | 13 | 176 | 3.2 | 12.9 | 0.00 | 0.00 | 0.00 | 58 | 1011.7 |
| 20260507184114 | 13 | 216 | 4.8 | 12.9 | 0.00 | 0.00 | 0.00 | 56 | 1011.7 |
| 20260507183659 | 13 | 197 | 3.2 | 12.9 | 0.00 | 0.00 | 0.00 | 53 | 1011.6 |
| 20260507183246 | 13 | 221 | 4.8 | 12.9 | 0.00 | 0.00 | 0.00 | 54 | 1011.7 |
| 20260507182845 | 13 | 282 | 4.8 | 12.9 | 0.00 | 0.00 | 0.00 | 54 | 1011.8 |
| 20260507182451 | 13 | 171 | 4.8 | 9.7 | 0.00 | 0.00 | 0.00 | 57 | 1011.7 |
| 20260507182049 | 13 | 319 | 4.8 | 9.7 | 0.00 | 0.00 | 0.00 | 55 | 1011.7 |
| 20260507181632 | 13 | 242 | 3.2 | 9.7 | 0.00 | 0.00 | 0.00 | 57 | 1011.7 |
| 20260507181221 | 13 | 273 | 3.2 | 9.7 | 0.00 | 0.00 | 0.00 | 57 | 1011.6 |
| 20260507180808 | 13 | 292 | 3.2 | 8.0 | 0.00 | 0.00 | 0.00 | 60 | 1011.6 |
| 20260507175306 | 13 | 26 | 3.2 | 9.7 | 0.00 | 0.00 | 0.00 | 63 | 1011.6 |
| 20260507174853 | 13 | 281 | 3.2 | 9.7 | 0.00 | 0.00 | 0.00 | 59 | 1011.6 |
| 20260507174459 | 13 | 285 | 3.2 | 9.7 | 0.00 | 0.00 | 0.00 | 64 | 1011.6 |
| 20260507174103 | 13 | 202 | 3.2 | 9.7 | 0.00 | 0.00 | 0.00 | 57 | 1011.7 |
| 20260507173647 | 13 | 236 | 3.2 | 9.7 | 0.00 | 0.00 | 0.00 | 60 | 1011.8 |
| 20260507173245 | 13 | 196 | 3.2 | 12.9 | 0.00 | 0.00 | 0.00 | 61 | 1011.9 |
| 20260507172836 | 13 | 246 | 3.2 | 12.9 | 0.00 | 0.00 | 0.00 | 70 | 1011.9 |
| 20260507172435 | 13 | 237 | 3.2 | 12.9 | 0.00 | 0.00 | 0.00 | 64 | 1011.9 |
| 20260507171450 | 13 | 188 | 3.2 | 9.7 | 0.00 | 0.00 | 0.00 | 65 | 1011.9 |
| 20260507170525 | 12 | 0 | 3.2 | 12.9 | 0.00 | 0.00 | 0.00 | 64 | 1011.9 |
| 20260507170118 | 12 | 0 | 3.2 | 12.9 | 0.00 | 0.00 | 0.00 | 67 | 1011.8 |
| 20260507165138 | 13 | 0 | 3.2 | 8.0 | 0.00 | 0.00 | 0.00 | 65 | 1011.8 |
| 20260507164726 | 13 | 0 | 3.2 | 8.0 | 0.00 | 0.00 | 0.00 | 60 | 1011.8 |
| 20260507164323 | 13 | 232 | 3.2 | 8.0 | 0.00 | 0.00 | 0.00 | 60 | 1011.8 |
| 20260507163405 | 13 | 0 | 3.2 | 9.7 | 0.00 | 0.00 | 0.00 | 66 | 1011.8 |
| 20260507163001 | 13 | 0 | 3.2 | 9.7 | 0.00 | 0.00 | 0.00 | 62 | 1011.7 |
| 20260507162606 | 13 | 0 | 3.2 | 9.7 | 0.00 | 0.00 | 0.00 | 60 | 1011.8 |
| 20260507162151 | 13 | 0 | 3.2 | 8.0 | 0.00 | 0.00 | 0.00 | 60 | 1011.8 |
| 20260507161756 | 13 | 0 | 3.2 | 11.3 | 0.00 | 0.00 | 0.00 | 62 | 1011.9 |
| 20260507161344 | 13 | 0 | 3.2 | 11.3 | 0.00 | 0.00 | 0.00 | 65 | 1011.8 |
| 20260507160940 | 13 | 0 | 3.2 | 11.3 | 0.00 | 0.00 | 0.00 | 66 | 1011.8 |
| 20260507160012 | 13 | 0 | 3.2 | 11.3 | 0.00 | 0.00 | 0.00 | 64 | 1011.9 |
| 20260507155610 | 13 | 0 | 3.2 | 11.3 | 0.00 | 0.00 | 0.00 | 61 | 1011.9 |
| 20260507155209 | 13 | 0 | 4.8 | 11.3 | 0.00 | 0.00 | 0.00 | 61 | 1012.0 |
| 20260507154230 | 13 | 0 | 3.2 | 12.9 | 0.00 | 0.00 | 0.00 | 64 | 1012.0 |
| 20260507153817 | 13 | 0 | 3.2 | 12.9 | 0.00 | 0.00 | 0.00 | 56 | 1012.0 |
| 20260507153421 | 13 | 0 | 3.2 | 12.9 | 0.00 | 0.00 | 0.00 | 54 | 1012.0 |
| 20260507152511 | 13 | 0 | 3.2 | 9.7 | 0.00 | 0.00 | 0.00 | 55 | 1012.0 |
| 20260507151549 | 13 | 0 | 3.2 | 9.7 | 0.00 | 0.00 | 0.00 | 55 | 1012.0 |
| 20260507151148 | 13 | 0 | 3.2 | 9.7 | 0.00 | 0.00 | 0.00 | 54 | 1012.0 |
| 20260507150733 | 13 | 0 | 1.6 | 6.4 | 0.00 | 0.00 | 0.00 | 57 | 1012.0 |
| 20260507150329 | 13 | 0 | 3.2 | 6.4 | 0.00 | 0.00 | 0.00 | 59 | 1012.0 |
| 20260507145407 | 13 | 0 | 1.6 | 6.4 | 0.00 | 0.00 | 0.00 | 59 | 1012.0 |
| 20260507145005 | 13 | 0 | 3.2 | 8.0 | 0.00 | 0.00 | 0.00 | 62 | 1012.0 |
| 20260507144608 | 12 | 0 | 3.2 | 8.0 | 0.00 | 0.00 | 0.00 | 65 | 1011.9 |
| 20260507144211 | 13 | 0 | 3.2 | 8.0 | 0.00 | 0.00 | 0.00 | 68 | 1011.9 |
| 20260507143800 | 13 | 0 | 3.2 | 8.0 | 0.00 | 0.00 | 0.00 | 67 | 1012.0 |
| 20260507142840 | 13 | 0 | 3.2 | 8.0 | 0.00 | 0.00 | 0.00 | 67 | 1012.0 |
| 20260507142426 | 12 | 0 | 3.2 | 8.0 | 0.00 | 0.00 | 0.00 | 65 | 1012.1 |
| 20260507140957 | 12 | 163 | 3.2 | 11.3 | 0.00 | 0.00 | 0.00 | 65 | 1012.1 |
| 20260507140557 | 12 | 163 | 1.6 | 11.3 | 0.00 | 0.00 | 0.00 | 64 | 1012.3 |
| 20260507140146 | 12 | 205 | 1.6 | 11.3 | 0.00 | 0.00 | 0.00 | 66 | 1012.3 |
| 20260507134644 | 11 | 247 | 3.2 | 8.0 | 0.00 | 0.00 | 0.00 | 66 | 1012.4 |
| 20260507134247 | 11 | 161 | 3.2 | 14.5 | 0.00 | 0.00 | 0.00 | 68 | 1012.4 |
| 20260507133834 | 12 | 250 | 3.2 | 14.5 | 0.00 | 0.00 | 0.00 | 66 | 1012.5 |
| 20260507133440 | 11 | 229 | 3.2 | 14.5 | 0.00 | 0.00 | 0.00 | 68 | 1012.5 |
| 20260507132516 | 11 | 0 | 1.6 | 14.5 | 0.00 | 0.00 | 0.00 | 67 | 1012.4 |
| 20260507131546 | 11 | 0 | 3.2 | 8.0 | 0.00 | 0.00 | 0.00 | 66 | 1012.4 |
| 20260507131131 | 11 | 190 | 1.6 | 4.8 | 0.00 | 0.00 | 0.00 | 67 | 1012.5 |
| 20260507130736 | 11 | 196 | 1.6 | 6.4 | 0.00 | 0.00 | 0.00 | 68 | 1012.4 |
| 20260507130322 | 11 | 189 | 1.6 | 6.4 | 0.00 | 0.00 | 0.00 | 68 | 1012.4 |
| 20260507125909 | 11 | 236 | 1.6 | 6.4 | 0.00 | 0.00 | 0.00 | 68 | 1012.3 |
| 20260507125506 | 10 | 223 | 1.6 | 6.4 | 0.00 | 0.00 | 0.00 | 68 | 1012.4 |
| 20260507124540 | 10 | 227 | 0.0 | 3.2 | 0.00 | 0.00 | 0.00 | 70 | 1012.4 |
| 20260507124127 | 10 | 219 | 0.0 | 3.2 | 0.00 | 0.00 | 0.00 | 69 | 1012.4 |
| 20260507123731 | 10 | 221 | 0.0 | 0.0 | 0.00 | 0.00 | 0.00 | 71 | 1012.5 |
| 20260507123317 | 10 | 217 | 0.0 | 3.2 | 0.00 | 0.00 | 0.00 | 72 | 1012.5 |
| 20260507121848 | 9 | 198 | 0.0 | 3.2 | 0.00 | 0.00 | 0.00 | 73 | 1012.4 |
| 20260507120920 | 8 | 200 | 0.0 | 1.6 | 0.00 | 0.00 | 0.00 | 73 | 1012.4 |
| 20260507120520 | 8 | 214 | 0.0 | 1.6 | 0.00 | 0.00 | 0.00 | 73 | 1012.5 |
| 20260507115546 | 8 | 193 | 0.0 | 3.2 | 0.00 | 0.00 | 0.00 | 74 | 1012.5 |
| 20260507115152 | 8 | 204 | 0.0 | 3.2 | 0.00 | 0.00 | 0.00 | 75 | 1012.5 |
| 20260507114742 | 8 | 184 | 0.0 | 4.8 | 0.00 | 0.00 | 0.00 | 75 | 1012.6 |
| 20260507114335 | 8 | 218 | 0.0 | 4.8 | 0.00 | 0.00 | 0.00 | 76 | 1012.6 |
| 20260507113934 | 7 | 211 | 0.0 | 4.8 | 0.00 | 0.00 | 0.00 | 76 | 1012.6 |
| 20260507113540 | 7 | 215 | 0.0 | 3.2 | 0.00 | 0.00 | 0.00 | 76 | 1012.5 |
| 20260507113135 | 7 | 209 | 0.0 | 3.2 | 0.00 | 0.00 | 0.00 | 76 | 1012.5 |
| 20260507112726 | 7 | 213 | 0.0 | 1.6 | 0.00 | 0.00 | 0.00 | 76 | 1012.4 |
| 20260507112320 | 7 | 213 | 0.0 | 1.6 | 0.00 | 0.00 | 0.00 | 77 | 1012.4 |
| 20260507111909 | 7 | 214 | 0.0 | 0.0 | 0.00 | 0.00 | 0.00 | 78 | 1012.3 |
| 20260507111504 | 7 | 214 | 0.0 | 4.8 | 0.00 | 0.00 | 0.00 | 77 | 1012.3 |
| 20260507110544 | 7 | 210 | 0.0 | 1.6 | 0.00 | 0.00 | 0.00 | 77 | 1012.2 |
| 20260507110128 | 7 | 210 | 0.0 | 1.6 | 0.00 | 0.00 | 0.00 | 77 | 1012.2 |
| 20260507105726 | 6 | 165 | 0.0 | 1.6 | 0.00 | 0.00 | 0.00 | 78 | 1012.2 |
| 20260507105332 | 6 | 234 | 0.0 | 1.6 | 0.00 | 0.00 | 0.00 | 78 | 1012.2 |
| 20260507104936 | 6 | 246 | 0.0 | 0.0 | 0.00 | 0.00 | 0.00 | 79 | 1012.2 |
| 20260507104525 | 6 | 248 | 0.0 | 0.0 | 0.00 | 0.00 | 0.00 | 79 | 1012.2 |
| 20260507104110 | 6 | 247 | 0.0 | 0.0 | 0.00 | 0.00 | 0.00 | 79 | 1012.1 |
| 20260507103703 | 6 | 247 | 0.0 | 1.6 | 0.00 | 0.03 | 0.00 | 80 | 1012.0 |
| 20260507103259 | 6 | 228 | 0.0 | 0.0 | 0.00 | 0.03 | 0.00 | 80 | 1012.1 |
| 20260507102344 | 6 | 124 | 0.0 | 0.0 | 0.00 | 0.03 | 0.00 | 80 | 1012.1 |
| 20260507101940 | 6 | 123 | 0.0 | 0.0 | 0.00 | 0.03 | 0.00 | 80 | 1012.1 |
| 20260507101532 | 6 | 124 | 0.0 | 0.0 | 0.00 | 0.05 | 0.00 | 80 | 1012.0 |
| 20260507101138 | 6 | 124 | 0.0 | 0.0 | 0.00 | 0.05 | 0.00 | 79 | 1011.9 |
| 20260507100731 | 6 | 124 | 0.0 | 0.0 | 0.00 | 0.08 | 0.00 | 80 | 1011.9 |
| 20260507100319 | 6 | 123 | 0.0 | 0.0 | 0.00 | 0.10 | 0.00 | 79 | 1011.9 |
| 20260507095345 | 6 | 124 | 0.0 | 0.0 | 0.00 | 0.10 | 0.00 | 79 | 1012.0 |
| 20260507094945 | 6 | 123 | 0.0 | 1.6 | 0.00 | 0.10 | 0.00 | 78 | 1012.0 |
| 20260507094549 | 6 | 124 | 0.0 | 1.6 | 0.00 | 0.10 | 0.00 | 78 | 1011.9 |
| 20260507094138 | 6 | 225 | 1.6 | 4.8 | 0.00 | 0.10 | 0.00 | 78 | 1011.9 |
| 20260507093743 | 6 | 111 | 0.0 | 3.2 | 0.00 | 0.15 | 0.00 | 77 | 1011.8 |
| 20260507093343 | 6 | 109 | 0.0 | 3.2 | 0.00 | 0.15 | 0.00 | 78 | 1011.9 |
| 20260507092422 | 6 | 132 | 0.0 | 3.2 | 0.00 | 0.15 | 0.00 | 78 | 1011.9 |
| 20260507092024 | 6 | 178 | 0.0 | 3.2 | 0.00 | 0.18 | 0.00 | 77 | 1011.9 |
| 20260507091625 | 6 | 122 | 0.0 | 3.2 | 0.00 | 0.18 | 0.00 | 77 | 1011.9 |
| 20260507091222 | 6 | 123 | 0.0 | 3.2 | 0.00 | 0.18 | 0.00 | 78 | 1011.9 |
| 20260507090257 | 6 | 128 | 0.0 | 1.6 | 0.00 | 0.20 | 0.00 | 78 | 1012.2 |
| 20260507085851 | 6 | 128 | 0.0 | 0.0 | 0.00 | 0.23 | 0.00 | 79 | 1012.1 |
| 20260507085443 | 6 | 128 | 0.0 | 0.0 | 0.00 | 0.23 | 0.00 | 78 | 1012.1 |
| 20260507084523 | 6 | 128 | 0.0 | 0.0 | 0.00 | 0.25 | 0.00 | 79 | 1012.0 |
| 20260507084126 | 6 | 128 | 0.0 | 0.0 | 0.00 | 0.28 | 0.00 | 79 | 1012.1 |
| 20260507083726 | 6 | 128 | 0.0 | 0.0 | 0.00 | 0.28 | 0.00 | 78 | 1012.1 |
| 20260507082805 | 6 | 128 | 0.0 | 0.0 | 0.00 | 0.28 | 0.00 | 77 | 1012.2 |
| 20260507082402 | 6 | 128 | 0.0 | 0.0 | 0.00 | 0.30 | 0.00 | 78 | 1012.2 |
| 20260507081959 | 6 | 128 | 0.0 | 0.0 | 0.00 | 0.30 | 0.00 | 78 | 1012.2 |
| 20260507081544 | 6 | 128 | 0.0 | 0.0 | 0.00 | 0.30 | 0.00 | 79 | 1012.2 |
| 20260507081128 | 6 | 128 | 0.0 | 0.0 | 0.00 | 0.33 | 0.00 | 78 | 1012.2 |
| 20260507080726 | 6 | 128 | 0.0 | 0.0 | 0.00 | 0.33 | 0.00 | 79 | 1012.2 |
| 20260507080324 | 6 | 128 | 0.0 | 0.0 | 0.00 | 0.33 | 0.00 | 79 | 1012.2 |
| 20260507075924 | 6 | 128 | 0.0 | 0.0 | 0.00 | 0.33 | 0.00 | 79 | 1012.2 |
| 20260507074952 | 6 | 128 | 0.0 | 0.0 | 0.00 | 0.33 | 0.00 | 79 | 1012.2 |
| 20260507074537 | 6 | 128 | 0.0 | 1.6 | 0.00 | 0.36 | 0.00 | 79 | 1012.2 |
| 20260507074128 | 6 | 128 | 0.0 | 0.0 | 0.00 | 0.36 | 0.00 | 79 | 1012.2 |
| 20260507073721 | 6 | 128 | 0.0 | 0.0 | 0.00 | 0.36 | 0.00 | 79 | 1012.2 |
| 20260507073308 | 6 | 128 | 0.0 | 0.0 | 0.00 | 0.36 | 0.00 | 79 | 1012.2 |
| 20260507072859 | 6 | 128 | 0.0 | 0.0 | 0.00 | 0.36 | 0.00 | 79 | 1012.2 |
| 20260507072505 | 6 | 128 | 0.0 | 1.6 | 0.00 | 0.38 | 0.00 | 80 | 1012.3 |
| 20260507071539 | 6 | 128 | 0.0 | 0.0 | 0.00 | 0.38 | 0.00 | 79 | 1012.3 |
| 20260507071141 | 6 | 128 | 0.0 | 3.2 | 0.00 | 0.38 | 0.00 | 80 | 1012.3 |
| 20260507070741 | 6 | 156 | 0.0 | 1.6 | 0.00 | 0.38 | 0.00 | 80 | 1012.3 |
| 20260507065306 | 6 | 157 | 0.0 | 1.6 | 0.00 | 0.38 | 0.00 | 80 | 1012.5 |
| 20260507064912 | 6 | 180 | 0.0 | 0.0 | 0.00 | 0.38 | 0.00 | 80 | 1012.5 |
| 20260507063951 | 6 | 248 | 0.0 | 0.0 | 0.00 | 0.41 | 0.00 | 80 | 1012.6 |
| 20260507063538 | 6 | 247 | 0.0 | 0.0 | 0.00 | 0.41 | 0.00 | 79 | 1012.6 |
| 20260507063132 | 6 | 247 | 0.0 | 0.0 | 0.00 | 0.41 | 0.00 | 79 | 1012.7 |
| 20260507062728 | 6 | 247 | 0.0 | 0.0 | 0.00 | 0.41 | 0.00 | 79 | 1012.7 |
| 20260507062325 | 6 | 248 | 0.0 | 0.0 | 0.00 | 0.43 | 0.00 | 79 | 1012.7 |
| 20260507061911 | 6 | 248 | 0.0 | 0.0 | 0.00 | 0.43 | 0.00 | 78 | 1012.7 |
| 20260507061506 | 6 | 248 | 0.0 | 0.0 | 0.00 | 0.43 | 0.00 | 78 | 1012.8 |
| 20260507061056 | 6 | 248 | 0.0 | 0.0 | 0.00 | 0.43 | 0.00 | 77 | 1012.8 |
| 20260507060700 | 6 | 247 | 0.0 | 0.0 | 0.00 | 0.46 | 0.00 | 77 | 1012.8 |
| 20260507060257 | 6 | 246 | 0.0 | 0.0 | 0.00 | 0.46 | 0.00 | 78 | 1012.8 |
| 20260507055858 | 6 | 246 | 0.0 | 0.0 | 0.00 | 0.46 | 0.00 | 77 | 1012.8 |
| 20260507055443 | 6 | 247 | 0.0 | 0.0 | 0.00 | 0.46 | 0.00 | 77 | 1012.8 |
| 20260507055044 | 7 | 247 | 0.0 | 0.0 | 0.00 | 0.48 | 0.00 | 76 | 1012.8 |
| 20260507054631 | 7 | 247 | 0.0 | 0.0 | 0.00 | 0.48 | 0.00 | 76 | 1012.8 |
| 20260507054236 | 7 | 246 | 0.0 | 0.0 | 0.00 | 0.48 | 0.00 | 76 | 1012.9 |
| 20260507053824 | 7 | 247 | 0.0 | 0.0 | 0.00 | 0.48 | 0.00 | 75 | 1013.0 |
| 20260507053418 | 7 | 246 | 0.0 | 0.0 | 0.00 | 0.48 | 0.00 | 75 | 1013.0 |
| 20260507053015 | 7 | 240 | 0.0 | 0.0 | 0.00 | 0.48 | 0.00 | 75 | 1013.1 |
| 20260507052559 | 7 | 240 | 0.0 | 0.0 | 0.00 | 0.48 | 0.00 | 74 | 1013.2 |
| 20260507052154 | 7 | 243 | 0.0 | 0.0 | 0.00 | 0.48 | 0.00 | 76 | 1013.3 |
| 20260507051742 | 7 | 242 | 0.0 | 0.0 | 0.00 | 0.48 | 0.00 | 76 | 1013.2 |
| 20260507051338 | 7 | 243 | 0.0 | 0.0 | 0.00 | 0.48 | 0.00 | 76 | 1013.3 |
| 20260507050929 | 7 | 242 | 0.0 | 0.0 | 0.00 | 0.48 | 0.00 | 76 | 1013.3 |
| 20260507050527 | 7 | 244 | 0.0 | 0.0 | 0.00 | 0.51 | 0.00 | 76 | 1013.3 |
| 20260507050119 | 7 | 244 | 0.0 | 0.0 | 0.00 | 0.51 | 0.00 | 76 | 1013.3 |
| 20260507045717 | 7 | 221 | 0.0 | 0.0 | 0.00 | 0.51 | 0.00 | 76 | 1013.4 |
| 20260507045323 | 7 | 229 | 0.0 | 0.0 | 0.00 | 0.51 | 0.00 | 76 | 1013.5 |
| 20260507044926 | 7 | 228 | 0.0 | 0.0 | 0.00 | 0.51 | 0.00 | 76 | 1013.5 |
| 20260507044519 | 7 | 230 | 0.0 | 0.0 | 0.00 | 0.51 | 0.00 | 77 | 1013.4 |
| 20260507044102 | 7 | 234 | 0.0 | 0.0 | 0.00 | 0.53 | 0.00 | 76 | 1013.4 |
| 20260507043709 | 7 | 234 | 0.0 | 0.0 | 0.00 | 0.53 | 0.00 | 76 | 1013.4 |
| 20260507043315 | 7 | 45 | 0.0 | 0.0 | 0.00 | 0.53 | 0.00 | 78 | 1013.4 |
| 20260507042907 | 7 | 46 | 0.0 | 0.0 | 0.00 | 0.53 | 0.00 | 77 | 1013.4 |
| 20260507041938 | 7 | 46 | 0.0 | 0.0 | 0.00 | 0.56 | 0.00 | 79 | 1013.6 |
| 20260507041539 | 7 | 46 | 0.0 | 0.0 | 0.00 | 0.58 | 0.00 | 79 | 1013.6 |
| 20260507041145 | 7 | 46 | 0.0 | 0.0 | 0.00 | 0.61 | 0.00 | 80 | 1013.7 |
| 20260507040730 | 7 | 46 | 0.0 | 0.0 | 0.00 | 0.61 | 0.00 | 80 | 1013.8 |
| 20260507040322 | 7 | 46 | 0.0 | 0.0 | 0.00 | 0.61 | 0.00 | 81 | 1013.8 |
| 20260507035412 | 7 | 47 | 0.0 | 0.0 | 0.00 | 0.64 | 0.61 | 81 | 1013.8 |
| 20260507034446 | 7 | 47 | 0.0 | 0.0 | 0.00 | 0.69 | 0.61 | 82 | 1013.9 |
| 20260507034038 | 7 | 47 | 0.0 | 0.0 | 0.00 | 0.74 | 0.61 | 82 | 1013.8 |
| 20260507033113 | 7 | 47 | 0.0 | 0.0 | 0.00 | 0.79 | 0.61 | 81 | 1013.9 |
| 20260507032717 | 7 | 47 | 0.0 | 0.0 | 0.00 | 0.79 | 0.61 | 81 | 1013.9 |
| 20260507032306 | 7 | 48 | 0.0 | 0.0 | 0.00 | 0.81 | 0.61 | 81 | 1013.9 |
| 20260507031910 | 7 | 46 | 0.0 | 0.0 | 0.00 | 0.81 | 0.61 | 81 | 1013.9 |
| 20260507031456 | 7 | 47 | 0.0 | 0.0 | 0.00 | 0.84 | 0.61 | 81 | 1013.9 |
| 20260507031058 | 7 | 48 | 0.0 | 0.0 | 0.00 | 0.89 | 0.61 | 80 | 1013.9 |
| 20260507030129 | 7 | 48 | 0.0 | 0.0 | 0.00 | 0.94 | 0.61 | 80 | 1013.9 |
| 20260507025726 | 7 | 44 | 0.0 | 0.0 | 0.00 | 0.94 | 0.61 | 79 | 1013.9 |
| 20260507025331 | 7 | 45 | 0.0 | 0.0 | 0.00 | 0.97 | 0.61 | 78 | 1013.8 |
| 20260507024935 | 7 | 46 | 0.0 | 0.0 | 0.00 | 0.97 | 0.61 | 78 | 1013.7 |
| 20260507023958 | 7 | 46 | 0.0 | 0.0 | 0.00 | 1.07 | 0.61 | 77 | 1013.7 |
| 20260507023557 | 7 | 46 | 0.0 | 0.0 | 0.00 | 1.09 | 0.61 | 77 | 1013.7 |
| 20260507023156 | 7 | 42 | 0.0 | 0.0 | 0.00 | 1.09 | 0.61 | 78 | 1013.8 |
| 20260507022754 | 7 | 42 | 0.0 | 0.0 | 0.00 | 1.12 | 0.61 | 78 | 1013.8 |
| 20260507022359 | 7 | 42 | 0.0 | 0.0 | 0.00 | 1.12 | 0.61 | 77 | 1013.8 |
| 20260507021959 | 7 | 43 | 0.0 | 0.0 | 0.00 | 1.12 | 0.61 | 77 | 1013.7 |
| 20260507021549 | 7 | 43 | 0.0 | 0.0 | 0.00 | 1.14 | 0.61 | 76 | 1013.7 |
| 20260507021146 | 7 | 42 | 0.0 | 0.0 | 0.00 | 1.14 | 0.61 | 76 | 1013.7 |
| 20260507020732 | 7 | 42 | 0.0 | 0.0 | 0.00 | 1.17 | 0.61 | 75 | 1013.7 |
| 20260507020321 | 7 | 42 | 0.0 | 0.0 | 0.00 | 1.17 | 0.61 | 74 | 1013.6 |
| 20260507015913 | 7 | 43 | 0.0 | 0.0 | 0.00 | 1.17 | 0.61 | 72 | 1013.5 |
| 20260507015516 | 8 | 46 | 0.0 | 0.0 | 0.00 | 1.17 | 0.61 | 73 | 1013.4 |
| 20260507015122 | 8 | 48 | 0.0 | 0.0 | 0.00 | 1.22 | 0.61 | 70 | 1013.5 |
| 20260507014728 | 8 | 48 | 0.0 | 0.0 | 0.00 | 1.24 | 0.61 | 68 | 1013.6 |